Location: Alincthun
(50.7310°N, 1.8022°E)
Time: 15:57:21
(UTC+00:00)

Cosmos 2263 - Pass Details

Date: 17 February 2020
Orbit: 832 x 864 km, 70.9° (Epoch: 07 April)

Event Time Altitude Azimuth Distance (km) Brightness Sun altitude
Exits shadow 04:58:45 - 331° (NNW) 2,970 6.8 -20.1°
Reaches altitude 10° 05:00:01 10° 332° (NNW) 2,494 6.4 -19.9°
Maximum altitude 05:05:45 78° 59° (ENE) 871 4.3 -19.0°
Drops below altitude 10° 05:11:24 10° 146° (SE) 2,456 7.0 -18.1°
Sets 05:13:50 0° 148° (SSE) 3,382 7.8 -17.8°
